Home   Weather   West Covina   Past weeks

Flag for USA Past Weather in West Covina, California, USA — Yesterday and Last 2 Weeks

Now
62 °F

Scattered clouds.


Feels Like: 62 °F
Forecast: 52 / 67 °F
Wind: No wind

Location: Fullerton Municipal Airport

Current Time: Dec 9, 2016 at 11:24:10 am

Latest Report: Dec 9, 2016 at 10:53 am


Visibility: 7 mi

Pressure: 30.25 "Hg

Humidity: 62%

Dew Point: 49 °F

Location of West CovinaLocation

Past Weather in West Covina — Graph

°F

West Covina Temperature Yesterday

Maximum temperature yesterday: 68 °F (at 12:53 pm)
Minimum temperature yesterday: 47 °F (at 4:53 am)
Average temperature yesterday: 57 °F

High & Low Weather Summary for the Past Weeks

 TemperatureHumidityPressure
High83 °F (Nov 24, 1:53 pm)96% (Dec 9, 5:53 am)30.27 "Hg (Dec 9, 5:53 am)
Low42 °F (Dec 4, 5:53 am)7% (Nov 24, 2:53 pm)29.82 "Hg (Nov 28, 3:53 pm)
Average57 °F57%30.02 "Hg
* Reported Nov 24 9:53 am — Dec 9 9:53 am, West Covina, Weather by CustomWeather, © 2016

Note: Actual official high and low records may vary slightly from our data, if they occured in-between our weather recording intervals... More about our weather records

Advertising

West Covina Weather History for the Previous 24 Hours

Scroll right to see more
 ConditionsComfort  
Time TempWeatherWind HumidityBarometerVisibility
9:53 am
Fri, Dec 9
60 °FSunny.3 mph67%30.27 "Hg7 mi
8:53 am56 °FSunny.No wind77%30.27 "Hg6 mi
7:53 am53 °FFog.5 mph89%30.24 "Hg5 mi
6:53 am51 °FFog.No wind92%30.24 "Hg4 mi
5:53 am50 °FFog.No wind96%30.24 "Hg6 mi
4:53 am50 °FClear.No wind93%30.23 "Hg7 mi
3:53 am51 °FClear.No wind92%30.24 "Hg7 mi
2:53 am51 °FClear.No wind89%30.26 "Hg10 mi
1:53 am52 °FClear.No wind89%30.25 "Hg10 mi
12:53 am55 °FOvercast.No wind80%30.24 "Hg10 mi
11:53 pm
Thu, Dec 8
54 °FPassing clouds.No wind80%30.25 "Hg10 mi
10:53 pm55 °FClear.3 mph77%30.25 "Hg10 mi
9:53 pm55 °FClear.3 mph77%30.24 "Hg10 mi
8:53 pm56 °FClear.3 mph75%30.24 "Hg10 mi
7:53 pm57 °FClear.No wind78%30.24 "Hg10 mi
6:53 pm59 °FClear.No wind69%30.22 "Hg10 mi
5:53 pm61 °FClear.No wind58%30.22 "Hg10 mi
4:53 pm63 °FClear.3 mph48%30.20 "Hg10 mi
3:53 pm67 °FSunny.7 mph39%30.19 "Hg10 mi
2:53 pm67 °FSunny.3 mph45%30.19 "Hg10 mi
1:53 pm67 °FSunny.7 mph47%30.19 "Hg9 mi
12:53 pm68 °FSunny.5 mph39%30.20 "Hg9 mi
11:53 am66 °FSunny.3 mph43%30.21 "Hg9 mi
Weather by CustomWeather, © 2016

See weather overviewHow to use our weather pages